Flag for Brazil Weather past 2 weeks in Recife, Pernambuco, Brazil

Now
84 °F

Scattered clouds.


Feels Like: 91 °F
Forecast: 76 / 84 °F
Wind: 12 mph from East

Location: Recife Aeroporto

Current Time: Dec 20, 2014 at 3:04:51 PM

Latest Report: Dec 20, 2014 at 2:00 PM


Visibility: N/A

Pressure: 29.92 "Hg

Humidity: 70%

Dew point: 73 °F

Location of RecifeLocation

Historic Weather in Recife — Graph

°F

Recife temperature yesterday

Maximum temperature yesterday: 86 °F (at 11:00 AM)
Minimum temperature yesterday: 79 °F (at 1:00 AM)
Average temperature yesterday: 82 °F

Past Weeks' High & Low Weather Summary

 TemperatureHumidityPressure
High86 °F (Dec 6, 11:00 AM)94% (Dec 10, 7:00 AM)29.98 "Hg (Dec 10, 7:00 AM)
Low75 °F (Dec 10, 6:00 AM)59% (Dec 17, 10:00 AM)29.86 "Hg (Dec 6, 3:00 PM)
Average81 °F75%29.91 "Hg
* Reported Dec 5 2:00 PM — Dec 20 2:00 PM, Recife, Weather by CustomWeather, © 2014

Note: Actual official high and low records may vary slightly from our data, if they occured in-between our weather recording intervals... More about our weather records

Advertising

Recife weather history for previous 24 hours

 ConditionsComfort  
Time TempWeatherWind HumidityBarometerVisibility
2:00 PM
Dec 20
84 °FScattered clouds.12 mph70%29.92 "HgN/A
1:00 PM86 °FPassing clouds.12 mph66%29.92 "HgN/A
12:00 PM86 °FPassing clouds.9 mph66%29.95 "HgN/A
11:00 AM86 °FPassing clouds.10 mph66%29.98 "HgN/A
10:00 AM84 °FPassing clouds.12 mph70%29.98 "HgN/A
9:00 AM82 °FPassing clouds.10 mph74%29.98 "HgN/A
8:00 AM82 °FPassing clouds.9 mph74%29.98 "HgN/A
7:00 AM81 °FScattered clouds.9 mph79%29.95 "HgN/A
6:00 AM79 °FPassing clouds.8 mph84%29.95 "HgN/A
5:00 AM75 °FLight rain. Passing clouds.14 mph94%29.92 "Hg3 mi
4:00 AM79 °FPassing clouds.7 mph79%29.92 "HgN/A
3:00 AM79 °FPassing clouds.5 mph84%29.89 "HgN/A
2:00 AM79 °FPassing clouds.6 mph79%29.92 "HgN/A
1:00 AM79 °FPassing clouds.6 mph79%29.92 "HgN/A
12:00 AM79 °FPassing clouds.5 mph79%29.92 "HgN/A
11:00 PM
Dec 19
81 °FPassing clouds.6 mph74%29.95 "HgN/A
10:00 PM81 °FPassing clouds.7 mph74%29.95 "HgN/A
9:00 PM81 °FPassing clouds.7 mph74%29.95 "HgN/A
8:00 PM81 °FPassing clouds.7 mph74%29.95 "HgN/A
7:00 PM81 °FPassing clouds.7 mph74%29.92 "HgN/A
6:00 PM81 °FScattered clouds.8 mph74%29.89 "HgN/A
5:00 PM82 °FScattered clouds.8 mph70%29.89 "HgN/A
4:00 PM84 °FScattered clouds.8 mph66%29.89 "HgN/A
3:00 PM82 °FScattered clouds.10 mph70%29.86 "HgN/A
Weather by CustomWeather, © 2014

See weather overviewHow to use our weather pages